Terminal Aerodrome Forecast
Issued by NWS

Home | Current Version | Previous Version | Text Only | Print | Product List | Glossary On
Versions: 1 2 3 4 5 6 7 8 9 10 11 12 13 14 15 16 17 18 19 20 21 22 23
982
FTUS43 KABR 260113 AAA
TAFPIR
TAF AMD
KPIR 260113Z 2601/2624 11011KT P6SM SCT015 BKN130
      TEMPO 2602/2604 BKN015
     FM260400 12008KT 6SM BR BKN012
     FM261000 10006KT 6SM BR OVC008
     FM261900 06005KT P6SM OVC025=

USA.gov is the U.S. government's official web portal to all federal, state and local government web resources and services.